EW2237 Weather Reports


time (UTC)temp
C
wind
direction
speed
KPH
gust
KPH
rain 1hr
cm
rain 24hr
cm
rain mn
cm
humidity
%
barometer
mb
20260510203314 22 359 0.0 0.0 0.03 0.03 0.03 70 1011.5
20260510202819 22 359 0.0 0.0 0.03 0.03 0.03 70 1011.6
20260510202323 22 359 0.0 0.0 0.03 0.03 0.03 70 1011.7
20260510201825 22 359 0.0 0.0 0.03 0.03 0.03 68 1011.7
20260510201328 22 359 0.0 1.6 0.03 0.03 0.03 68 1011.7
20260510200811 22 359 0.0 1.6 0.03 0.03 0.03 68 1011.7
20260510200315 22 359 0.0 1.6 0.03 0.03 0.03 66 1011.7
20260510195819 23 46 0.0 4.8 0.03 0.03 0.03 66 1011.7
20260510195322 23 326 1.6 4.8 0.03 0.03 0.03 69 1011.9
20260510194824 22 337 0.0 1.6 0.03 0.03 0.03 72 1012.0
20260510194327 22 323 0.0 8.0 0.03 0.03 0.03 70 1012.1
20260510193852 23 321 0.0 8.0 0.00 0.00 0.00 65 1012.2
20260510193315 23 27 1.6 9.7 0.00 0.00 0.00 62 1012.2
20260510192818 23 349 3.2 11.3 0.00 0.00 0.00 61 1012.2
20260510192322 23 100 4.8 11.3 0.00 0.00 0.00 58 1012.2
20260510191824 23 44 1.6 8.0 0.00 0.00 0.00 57 1012.1
20260510191329 23 360 1.6 6.4 0.00 0.00 0.00 56 1012.1
20260510190832 23 339 0.0 6.4 0.00 0.00 0.00 58 1012.1
20260510190314 23 281 1.6 6.4 0.00 0.00 0.00 58 1012.2
20260510185816 23 359 1.6 4.8 0.00 0.00 0.00 58 1012.3
20260510185320 23 352 1.6 8.0 0.00 0.00 0.00 57 1012.3
20260510184823 24 356 3.2 8.0 0.00 0.00 0.00 56 1012.2
20260510184327 25 347 3.2 4.8 0.00 0.00 0.00 55 1012.1
20260510183850 25 345 0.0 4.8 0.00 0.00 0.00 54 1012.1
20260510183313 25 3 1.6 3.2 0.00 0.00 0.00 50 1012.1
20260510182816 25 346 1.6 3.2 0.00 0.00 0.00 49 1012.1
20260510182319 26 65 0.0 9.7 0.00 0.00 0.00 49 1012.0
20260510181822 26 141 1.6 9.7 0.00 0.00 0.00 47 1012.1
20260510181326 26 6 1.6 8.0 0.00 0.00 0.00 46 1012.1
20260510180828 27 5 1.6 8.0 0.00 0.00 0.00 45 1012.1
20260510180311 27 340 1.6 12.9 0.00 0.00 0.00 45 1012.2
20260510175815 27 143 4.8 12.9 0.00 0.00 0.00 47 1012.2
20260510175320 27 6 3.2 11.3 0.00 0.00 0.00 46 1012.2
20260510174846 27 127 1.6 6.4 0.00 0.00 0.00 50 1012.2
20260510174330 27 111 3.2 6.4 0.00 0.00 0.00 50 1012.3
20260510173814 26 188 3.2 11.3 0.00 0.00 0.00 50 1012.3
20260510173317 26 223 3.2 11.3 0.00 0.00 0.00 50 1012.4
20260510172821 26 74 3.2 16.1 0.00 0.00 0.00 50 1012.3
20260510172325 26 229 1.6 9.7 0.00 0.00 0.00 53 1012.2
20260510171828 26 12 1.6 8.0 0.00 0.00 0.00 51 1012.3
20260510171314 26 172 1.6 12.9 0.00 0.00 0.00 51 1012.4
20260510170817 26 351 4.8 12.9 0.00 0.00 0.00 48 1012.3
20260510170321 26 142 1.6 12.9 0.00 0.00 0.00 51 1012.3
20260510165825 26 229 1.6 6.4 0.00 0.00 0.00 53 1012.3
20260510165350 26 333 1.6 6.4 0.00 0.00 0.00 51 1012.4
20260510164812 25 19 1.6 8.0 0.00 0.00 0.00 52 1012.5
20260510164336 26 336 1.6 8.0 0.00 0.00 0.00 53 1012.4
20260510163819 26 259 0.0 4.8 0.00 0.00 0.00 55 1012.4
20260510163322 25 264 0.0 4.8 0.00 0.00 0.00 53 1012.5
20260510162847 25 169 3.2 6.4 0.00 0.00 0.00 55 1012.5
20260510162330 25 344 1.6 6.4 0.00 0.00 0.00 56 1012.5
20260510161813 25 172 1.6 4.8 0.00 0.00 0.00 57 1012.5
20260510161317 24 264 1.6 11.3 0.00 0.00 0.00 60 1012.5
20260510160821 24 354 3.2 11.3 0.00 0.00 0.00 57 1012.5
20260510160326 24 153 0.0 4.8 0.00 0.00 0.00 58 1012.5
20260510155828 23 345 1.6 4.8 0.00 0.00 0.00 57 1012.5
20260510155312 23 326 1.6 8.0 0.00 0.00 0.00 60 1012.6
20260510154817 23 342 3.2 8.0 0.00 0.00 0.00 58 1012.6
20260510154320 23 172 1.6 3.2 0.00 0.00 0.00 59 1012.7
20260510153824 23 262 1.6 4.8 0.00 0.00 0.00 61 1012.7
20260510153327 23 164 1.6 6.4 0.00 0.00 0.00 62 1012.6
20260510152830 23 160 1.6 6.4 0.00 0.00 0.00 64 1012.6
20260510152314 22 359 1.6 3.2 0.00 0.00 0.00 64 1012.6
20260510151818 22 338 1.6 6.4 0.00 0.00 0.00 64 1012.7
20260510151322 22 64 0.0 6.4 0.00 0.00 0.00 67 1012.7
20260510150825 22 160 1.6 4.8 0.00 0.00 0.00 66 1012.7
20260510150327 21 152 0.0 9.7 0.00 0.00 0.00 67 1012.6
20260510145829 21 203 4.8 9.7 0.00 0.00 0.00 68 1012.6
20260510145313 20 352 1.6 8.0 0.00 0.00 0.00 70 1012.7
20260510144818 20 354 0.0 4.8 0.00 0.00 0.00 71 1012.8
20260510144322 20 166 1.6 4.8 0.00 0.00 0.00 73 1012.8
20260510143826 20 333 1.6 4.8 0.00 0.00 0.00 71 1012.8
20260510143331 20 15 1.6 6.4 0.00 0.00 0.00 73 1012.8
20260510142815 19 335 3.2 6.4 0.00 0.00 0.00 74 1012.9
20260510142318 18 223 0.0 4.8 0.00 0.00 0.00 76 1012.9
20260510141821 18 322 1.6 4.8 0.00 0.00 0.00 77 1012.8
20260510141326 18 159 0.0 4.8 0.00 0.00 0.00 78 1012.8
20260510140828 18 335 1.6 4.8 0.00 0.00 0.00 77 1012.8
20260510140332 17 353 0.0 4.8 0.00 0.00 0.00 79 1012.8
20260510135814 17 267 0.0 4.8 0.00 0.00 0.00 81 1012.8
20260510135318 17 353 1.6 4.8 0.00 0.00 0.00 82 1012.9
20260510134822 17 161 1.6 3.2 0.00 0.00 0.00 84 1012.9
20260510134326 16 138 0.0 0.0 0.00 0.00 0.00 85 1012.9
20260510133830 16 157 0.0 0.0 0.00 0.00 0.00 87 1012.9
20260510133332 16 154 0.0 0.0 0.00 0.00 0.00 87 1012.8
20260510132815 16 153 0.0 0.0 0.00 0.00 0.00 88 1012.8
20260510132318 15 126 0.0 0.0 0.00 0.00 0.00 89 1012.8
20260510131822 15 104 0.0 0.0 0.00 0.00 0.00 91 1012.8
20260510131325 15 105 0.0 0.0 0.00 0.00 0.00 91 1012.9
20260510130827 15 151 0.0 0.0 0.00 0.00 0.00 91 1013.0
20260510130330 14 122 0.0 0.0 0.00 0.00 0.00 92 1013.0
20260510125813 14 115 0.0 0.0 0.00 0.00 0.00 92 1013.0
20260510125335 14 6 0.0 0.0 0.00 0.00 0.00 93 1012.9
20260510124837 14 359 0.0 0.0 0.00 0.00 0.00 93 1012.9
20260510124340 13 344 0.0 0.0 0.00 0.00 0.00 93 1013.0
20260510123822 13 343 0.0 0.0 0.00 0.00 0.00 93 1012.9
20260510123327 13 74 0.0 0.0 0.00 0.00 0.00 93 1012.9
20260510122830 13 74 0.0 1.6 0.00 0.00 0.00 93 1012.8
20260510122315 13 74 0.0 1.6 0.00 0.00 0.00 93 1012.7
20260510121819 13 41 0.0 1.6 0.00 0.00 0.00 94 1012.7
20260510121324 13 35 0.0 1.6 0.00 0.00 0.00 94 1012.6
20260510120827 13 35 0.0 1.6 0.00 0.00 0.00 94 1012.6
20260510120351 12 352 0.0 0.0 0.00 0.00 0.00 94 1012.5
20260510115815 12 352 0.0 0.0 0.00 0.00 0.00 94 1012.4
20260510115341 12 352 0.0 3.2 0.00 0.00 0.00 94 1012.2
20260510114824 12 351 0.0 6.4 0.00 0.00 0.00 94 1012.5
20260510114327 12 328 1.6 6.4 0.00 0.00 0.00 94 1012.6
20260510113829 12 15 0.0 1.6 0.00 0.00 0.00 94 1012.5
20260510113333 12 15 0.0 3.2 0.00 0.00 0.00 94 1012.3
20260510112814 11 326 0.0 1.6 0.00 0.00 0.00 94 1012.2
20260510112318 11 64 0.0 0.0 0.00 0.00 0.00 94 1012.2
20260510111822 11 64 0.0 0.0 0.00 0.00 0.00 94 1012.0
20260510111326 11 331 0.0 1.6 0.00 0.00 0.00 94 1012.0
20260510110830 11 330 0.0 1.6 0.00 0.00 0.00 94 1011.9
20260510110352 11 355 0.0 0.0 0.00 0.00 0.00 94 1011.8
20260510105835 11 347 0.0 1.6 0.00 0.00 0.00 94 1011.9
20260510105319 11 347 0.0 1.6 0.00 0.00 0.00 94 1011.8
20260510104822 11 350 0.0 1.6 0.00 0.00 0.00 94 1011.8
20260510104326 10 62 0.0 0.0 0.00 0.00 0.00 93 1011.4
20260510103829 10 62 0.0 0.0 0.00 0.00 0.00 93 1011.5
20260510103312 10 62 0.0 0.0 0.00 0.00 0.00 93 1011.5
20260510102817 10 62 0.0 0.0 0.00 0.00 0.00 93 1011.5
20260510102321 10 62 0.0 0.0 0.00 0.00 0.00 93 1011.4
20260510101824 10 62 0.0 0.0 0.00 0.00 0.00 93 1011.4
20260510101330 10 62 0.0 0.0 0.00 0.00 0.00 93 1011.3
20260510100812 10 62 0.0 0.0 0.00 0.00 0.00 93 1011.2
20260510100316 10 62 0.0 0.0 0.00 0.00 0.00 93 1011.5
20260510095819 10 63 0.0 0.0 0.00 0.00 0.00 93 1011.3
20260510095324 10 346 0.0 0.0 0.00 0.00 0.00 93 1011.3
20260510094826 10 346 0.0 0.0 0.00 0.00 0.00 93 1011.2
20260510094331 11 346 0.0 8.0 0.00 0.00 0.00 94 1011.3
20260510093814 11 345 1.6 8.0 0.00 0.00 0.00 94 1011.7
20260510093318 11 330 0.0 8.0 0.00 0.00 0.00 94 1011.2
20260510092822 11 330 1.6 8.0 0.00 0.00 0.00 94 1011.4
20260510092326 11 360 0.0 6.4 0.00 0.00 0.00 94 1011.0
20260510091829 11 338 0.0 6.4 0.00 0.00 0.00 95 1011.1
20260510091313 11 345 0.0 8.0 0.00 0.00 0.00 95 1010.8
20260510090817 10 340 1.6 9.7 0.00 0.00 0.00 95 1010.9
20260510090322 10 136 0.0 9.7 0.00 0.00 0.00 94 1010.6
20260510085845 9 338 0.0 4.8 0.00 0.00 0.00 94 1010.7
20260510085326 8 332 0.0 1.6 0.00 0.00 0.00 93 1010.7
20260510084829 8 73 0.0 0.0 0.00 0.00 0.00 93 1010.6
20260510084313 8 73 0.0 0.0 0.00 0.00 0.00 93 1010.5
20260510083814 8 73 0.0 0.0 0.00 0.00 0.00 93 1010.6
20260510083318 8 73 0.0 0.0 0.00 0.00 0.00 93 1010.5
20260510082823 8 73 0.0 0.0 0.00 0.00 0.00 93 1010.5
20260510082327 8 73 0.0 0.0 0.00 0.00 0.00 93 1010.5
20260510081812 8 73 0.0 0.0 0.00 0.00 0.00 93 1010.6
20260510081316 8 73 0.0 0.0 0.00 0.00 0.00 93 1010.5
20260510080818 8 73 0.0 0.0 0.00 0.00 0.00 93 1010.5
20260510080323 8 73 0.0 0.0 0.00 0.00 0.00 93 1010.4
20260510075826 8 73 0.0 0.0 0.00 0.00 0.00 93 1010.4
20260510075328 8 73 0.0 0.0 0.00 0.00 0.00 93 1010.4
20260510074833 8 73 0.0 0.0 0.00 0.00 0.00 93 1010.3
20260510074317 8 73 0.0 0.0 0.00 0.00 0.00 93 1010.2
20260510073820 8 73 0.0 0.0 0.00 0.00 0.00 93 1010.3
20260510073325 8 73 0.0 0.0 0.00 0.00 0.00 93 1010.2
20260510072829 8 73 0.0 0.0 0.00 0.00 0.00 93 1010.1
20260510072313 8 73 0.0 0.0 0.00 0.00 0.00 93 1010.0
20260510071818 8 73 0.0 0.0 0.00 0.00 0.00 93 1009.8
20260510071320 8 73 0.0 0.0 0.00 0.00 0.00 93 1009.7
20260510070846 8 73 0.0 0.0 0.00 0.00 0.00 93 1009.7
20260510070329 8 73 0.0 0.0 0.00 0.00 0.00 93 1009.7
20260510065834 8 73 0.0 0.0 0.00 0.00 0.00 93 1009.7
20260510065337 8 73 0.0 0.0 0.00 0.00 0.00 93 1009.8
20260510064820 8 73 0.0 0.0 0.00 0.00 0.00 92 1009.8
20260510064323 8 73 0.0 0.0 0.00 0.00 0.00 92 1009.8
20260510063826 8 73 0.0 0.0 0.00 0.00 0.00 93 1009.9
20260510063331 8 73 0.0 0.0 0.00 0.00 0.00 93 1009.9
20260510062814 8 73 0.0 0.0 0.00 0.00 0.00 93 1010.0
20260510062338 8 73 0.0 0.0 0.00 0.00 0.00 92 1010.0
20260510061821 8 73 0.0 0.0 0.00 0.00 0.00 92 1010.0
20260510061324 8 73 0.0 0.0 0.00 0.00 0.00 92 1010.2
20260510060848 8 73 0.0 0.0 0.00 0.00 0.00 92 1010.1
20260510060330 8 73 0.0 0.0 0.00 0.00 0.00 92 1010.1
20260510055812 8 73 0.0 0.0 0.00 0.00 0.00 92 1010.1
20260510055316 8 73 0.0 0.0 0.00 0.00 0.00 92 1010.1
20260510054820 8 73 0.0 0.0 0.00 0.00 0.00 92 1010.2
20260510054323 8 73 0.0 0.0 0.00 0.00 0.00 92 1010.2
20260510053827 8 73 0.0 0.0 0.00 0.00 0.00 92 1010.2
20260510053331 8 73 0.0 0.0 0.00 0.00 0.00 92 1010.2
20260510052813 8 73 0.0 0.0 0.00 0.00 0.00 92 1010.3
20260510052318 8 73 0.0 0.0 0.00 0.00 0.00 92 1010.3
20260510051822 8 73 0.0 0.0 0.00 0.00 0.00 92 1010.3
20260510051325 8 73 0.0 0.0 0.00 0.00 0.00 92 1010.4
20260510050830 8 73 0.0 0.0 0.00 0.00 0.00 92 1010.4
20260510050313 8 73 0.0 0.0 0.00 0.00 0.00 92 1010.4
20260510045818 8 73 0.0 0.0 0.00 0.00 0.00 92 1010.3
20260510045344 8 73 0.0 0.0 0.00 0.00 0.00 92 1010.4
20260510044824 9 73 0.0 0.0 0.00 0.00 0.00 92 1010.5
20260510044348 8 73 0.0 0.0 0.00 0.00 0.00 91 1010.5
20260510043832 8 73 0.0 0.0 0.00 0.00 0.00 91 1010.5
20260510043315 9 73 0.0 0.0 0.00 0.00 0.00 91 1010.5
20260510042838 9 73 0.0 0.0 0.00 0.00 0.00 91 1010.6
20260510042322 9 73 0.0 0.0 0.00 0.00 0.00 91 1010.6
20260510041825 9 73 0.0 0.0 0.00 0.00 0.00 91 1010.6
20260510041330 9 73 0.0 0.0 0.00 0.00 0.00 91 1010.5
20260510040833 9 73 0.0 0.0 0.00 0.00 0.00 91 1010.6
20260510040316 9 73 0.0 0.0 0.00 0.00 0.00 91 1010.5
20260510035819 9 73 0.0 0.0 0.00 0.00 0.00 91 1010.6
20260510035323 9 73 0.0 0.0 0.00 0.00 0.00 91 1010.5
20260510034828 9 73 0.0 0.0 0.00 0.00 0.00 91 1010.6
20260510034331 9 73 0.0 0.0 0.00 0.00 0.00 91 1010.5
20260510033815 9 73 0.0 0.0 0.00 0.00 0.00 91 1010.4
20260510033338 9 73 0.0 0.0 0.00 0.00 0.00 91 1010.4
20260510032840 9 73 0.0 0.0 0.00 0.00 0.00 91 1010.4
20260510032324 9 73 0.0 0.0 0.00 0.00 0.00 90 1010.2
20260510031826 10 73 0.0 0.0 0.00 0.00 0.00 90 1010.1
20260510031329 10 73 0.0 0.0 0.00 0.00 0.00 90 1010.2
20260510030814 10 73 0.0 0.0 0.00 0.00 0.00 90 1010.1
20260510030339 10 73 0.0 0.0 0.00 0.00 0.00 90 1010.1
20260510025843 10 73 0.0 0.0 0.00 0.00 0.00 90 1010.1
20260510025325 10 73 0.0 0.0 0.00 0.00 0.00 90 1010.1
20260510024849 10 73 0.0 0.0 0.00 0.00 0.00 90 1010.0
20260510024313 10 73 0.0 0.0 0.00 0.00 0.00 90 1010.0
20260510023817 10 73 0.0 0.0 0.00 0.00 0.00 90 1010.0
20260510023322 10 73 0.0 0.0 0.00 0.00 0.00 90 1010.1
20260510022827 10 73 0.0 0.0 0.00 0.00 0.00 89 1010.2
20260510022331 10 73 0.0 0.0 0.00 0.00 0.00 89 1010.1
20260510021835 10 73 0.0 0.0 0.00 0.00 0.00 89 1010.1
20260510021316 10 73 0.0 0.0 0.00 0.00 0.00 89 1010.1
20260510020820 10 73 0.0 0.0 0.00 0.00 0.00 89 1010.0
20260510020344 10 73 0.0 0.0 0.00 0.00 0.00 89 1010.0
20260510015826 10 73 0.0 0.0 0.00 0.00 0.00 89 1010.0
20260510015331 11 73 0.0 0.0 0.00 0.00 0.00 88 1009.9
20260510014835 11 73 0.0 0.0 0.00 0.00 0.00 88 1009.9
20260510014316 11 73 0.0 0.0 0.00 0.00 0.00 88 1009.9
20260510013821 11 73 0.0 0.0 0.00 0.00 0.00 88 1009.8
20260510013325 11 73 0.0 0.0 0.00 0.00 0.00 88 1009.9
20260510012827 11 73 0.0 0.0 0.00 0.00 0.00 88 1009.9
20260510012331 11 73 0.0 0.0 0.00 0.00 0.00 87 1009.9
20260510011815 11 73 0.0 0.0 0.00 0.00 0.00 87 1009.8
20260510011319 12 73 0.0 0.0 0.00 0.00 0.00 87 1009.8
20260510010823 11 73 0.0 0.0 0.00 0.00 0.00 86 1009.6
20260510010325 12 73 0.0 0.0 0.00 0.00 0.00 85 1009.7
20260510005828 12 73 0.0 0.0 0.00 0.00 0.00 85 1009.6
20260510005312 12 73 0.0 0.0 0.00 0.00 0.00 85 1009.6
20260510004815 12 73 0.0 0.0 0.00 0.00 0.00 84 1009.6
20260510004320 12 73 0.0 0.0 0.00 0.00 0.00 84 1009.5
20260510003821 13 73 0.0 0.0 0.00 0.00 0.00 83 1009.5
20260510003346 13 73 0.0 0.0 0.00 0.00 0.00 83 1009.5
20260510002850 13 73 0.0 0.0 0.00 0.00 0.00 82 1009.4
20260510002312 13 73 0.0 0.0 0.00 0.00 0.00 82 1009.5
20260510001816 14 73 0.0 0.0 0.00 0.00 0.00 81 1009.6
20260510001322 14 73 0.0 0.0 0.00 0.00 0.00 81 1009.6
20260510000844 15 73 0.0 0.0 0.00 0.00 0.00 81 1009.6
20260510000327 15 73 0.0 0.0 0.00 0.00 0.00 80 1009.6
20260509235851 15 73 0.0 0.0 0.00 0.00 0.00 80 1009.6
20260509235315 15 73 0.0 0.0 0.00 0.00 0.00 80 1009.6
20260509234820 15 73 0.0 0.0 0.00 0.00 0.00 79 1009.5
20260509234344 15 73 0.0 0.0 0.00 0.00 0.00 79 1009.5
20260509233825 15 73 0.0 1.6 0.00 0.00 0.00 79 1009.6
20260509233331 15 73 0.0 1.6 0.00 0.00 0.00 78 1009.6
20260509232813 15 73 0.0 1.6 0.00 0.00 0.00 78 1009.5
20260509232315 15 73 0.0 3.2 0.00 0.00 0.00 78 1009.4
20260509231841 16 72 0.0 3.2 0.00 0.00 0.00 77 1009.4
20260509231343 16 64 0.0 3.2 0.00 0.00 0.00 77 1009.4
20260509230825 16 64 0.0 3.2 0.00 0.00 0.00 76 1009.3
20260509230331 16 60 1.6 3.2 0.00 0.00 0.00 76 1009.4
20260509225834 16 70 0.0 4.8 0.00 0.00 0.00 75 1009.3
20260509225318 16 81 1.6 4.8 0.00 0.00 0.00 75 1009.3
20260509224822 16 77 1.6 3.2 0.00 0.00 0.00 75 1009.2
20260509224326 16 77 0.0 4.8 0.00 0.00 0.00 75 1009.3
20260509223830 16 77 1.6 6.4 0.00 0.00 0.00 75 1009.4
20260509223333 16 78 1.6 6.4 0.00 0.00 0.00 75 1009.4
20260509222815 16 65 1.6 4.8 0.00 0.00 0.00 76 1009.4
20260509222339 16 75 1.6 3.2 0.00 0.00 0.00 76 1009.2
20260509221821 16 68 0.0 3.2 0.00 0.00 0.00 76 1009.3
20260509221325 16 65 0.0 3.2 0.00 0.00 0.00 76 1009.4
20260509220849 16 65 0.0 3.2 0.00 0.00 0.00 76 1009.4
20260509220312 16 73 1.6 3.2 0.00 0.00 0.00 76 1009.5
20260509215816 16 63 0.0 3.2 0.00 0.00 0.00 76 1009.5
20260509215319 16 58 1.6 3.2 0.00 0.00 0.00 75 1009.5
20260509214824 16 58 0.0 4.8 0.00 0.00 0.00 75 1009.5
20260509214347 16 57 1.6 4.8 0.00 0.00 0.00 75 1009.5
20260509213830 16 68 3.2 4.8 0.00 0.00 0.00 75 1009.5
20260509213315 16 75 1.6 3.2 0.00 0.00 0.00 75 1009.5
20260509212818 16 58 1.6 6.4 0.00 0.00 0.00 75 1009.5
20260509212323 16 68 3.2 6.4 0.00 0.00 0.00 75 1009.4
20260509211826 16 83 1.6 4.8 0.00 0.00 0.00 75 1009.4
20260509211312 16 56 1.6 3.2 0.00 0.00 0.00 74 1009.5
20260509210815 16 56 1.6 4.8 0.00 0.00 0.00 73 1009.5
20260509210319 16 33 1.6 4.8 0.00 0.00 0.00 73 1009.6
20260509205823 16 52 0.0 8.0 0.00 0.00 0.00 73 1009.7
20260509204830 16 316 3.2 8.0 0.00 0.00 0.00 74 1009.6
20260509204335 16 58 1.6 8.0 0.00 0.00 0.00 73 1009.5
20260509203816 17 59 0.0 4.8 0.00 0.00 0.00 72 1009.4